Voltar ao catálogo

CZ-6A DEB

AtivoSSO
NORAD 56249·DEBRIS·🇨🇳 China

Lançado Nov 11, 2022 de Taiyuan Satellite Launch Center

Loading…

Próximas Passagens (próximas 24 horas)

TLE

EnvelhecendoSource: Space-Track

Época: Sep 7, 2026, 00:02 UTC

1 56249U 22151ABR 26250.00164355  .00000836  00000-0  36803-3 0  9996
2 56249  98.7630 270.8737 0046967 101.7413 258.9041 14.25509126186250

Acompanhe CZ-6A DEB em tempo real com AllMySat

Download on the App Store